Tiempo atmosférico en la estación meteorológica de Agaete, Las Palmas (5 m.)



Fecha
DESCASC
Temp. máxima en grados centígrados (hora)
DESCASC
Temp. mínima en grados centígrados (hora)
DESCASC
Temp. media en grados centígrados
DESCASC
Racha de viento máxima en m/sg (hora)
DESCASC
Velocidad máxima media en intervalos de 10 minutos(hora)
DESCASC
Precipitaciones diarias en mm
DESCASC
Precipitaciones de 00:00 a 06:00 en mm
DESCASC
Precipitaciones de 06:00 a 12:00 en mm
DESCASC
Precipitaciones de 12:00 a 18:00 en mm
DESCASC
Precipitaciones de 18:00 a 24:00 en mm
DESCASC
11-12-2019 21.2 (12:20) 18.5 (22:50) 19.9 17.78 (14:10) 9.72 (04:50) 0 0 0 0 0
10-12-2019 21.7 (13:40) 17.9 (01:10) 19.8 12.78 (15:10) 8.33 (16:00) 0 0 0 0 0
09-12-2019 21 (14:10) 18.1 (23:20) 19.6 14.17 (17:10) 8.61 (16:50) 0 0 0 0 0
08-12-2019 20.9 (14:40) 18.3 (00:00) 19.6 13.61 (14:10) 7.5 (13:00) 0 0 0 0 0
07-12-2019 21.1 (15:30) 17.2 (00:00) 19.2 12.22 (08:00) 7.22 (21:50) 1 0.6 0.4 0 0
06-12-2019 20.4 (14:00) 16.1 (00:00) 18.3 13.06 (00:30) 8.89 (00:40) 7.2 5.2 0 1 1
05-12-2019 20 (00:00) 16.3 (00:00) 18.1 15 (12:00) 11.39 (00:40) 15 11 0.2 0.8 3
04-12-2019 22.1 (14:40) 17.7 (00:00) 19.9 13.33 (12:30) 11.11 (12:30) 0 0 0 0 0
03-12-2019 21 (15:30) 17.4 (00:00) 19.2 10.28 (14:10) 7.78 (14:10) 0 0 0 0 0
02-12-2019 21.6 (14:30) 17.4 (00:00) 19.5 11.11 (23:00) 6.11 (23:00) 1.8 0 0.2 0 1.6
01-12-2019 23.6 (14:10) 19.3 (00:00) 21.4 16.39 (07:00) 9.17 (12:40) 0 0 0 0 0
30-11-2019 26.3 (16:50) 20.3 (00:00) 23.3 13.33 (23:20) 7.5 (23:30) 0 0 0 0 0
29-11-2019 25.5 (15:40) 20.2 (00:00) 22.9 12.78 (01:00) 8.33 (00:40) 0 0 0 0 0
28-11-2019 23.7 (23:10) 18.2 (00:00) 21 13.06 (01:10) 8.06 (01:00) 0 0 0 0 0
27-11-2019 22.7 (12:00) 19.5 (00:00) 21.1 15 (15:10) 8.33 (21:10) 0 0 0 0 0
26-11-2019 22.8 (13:10) 18.4 (00:00) 20.6 13.61 (04:20) 7.78 (04:20) 0 0 0 0 0
25-11-2019 22.4 (13:10) 18.5 (00:00) 20.4 12.5 (09:50) 6.94 (09:50) 0 0 0 0 0
24-11-2019 22.7 (13:30) 18.8 (00:00) 20.8 12.22 (23:40) 7.78 (23:40) 0.6 0.6 0 0 0
23-11-2019 22.8 (10:10) 19.7 (00:00) 21.3 8.89 (20:50) 5.83 (07:10) 0.6 0 0.4 0 0.2
22-11-2019 22.9 (17:50) 18.9 (00:00) 20.9 9.17 (13:10) 6.39 (13:40) 0 0 0 0 0
21-11-2019 22.4 (10:40) 18.3 (00:00) 20.3 8.89 (15:10) 6.11 (14:40) 0 0 0 0 0
20-11-2019 23.3 (10:30) 17.6 (00:00) 20.4 8.06 (12:10) 6.39 (12:20) 0 0 0 0 0
19-11-2019 21.7 (16:10) 18.4 (00:00) 20.1 9.17 (11:10) 6.94 (11:10) 0.2 0 0.2 0 0
18-11-2019 22.4 (14:30) 18.1 (00:00) 20.3 12.78 (11:30) 7.22 (12:30) 0 0 0 0 0
17-11-2019 20.8 (13:00) 17.1 (00:00) 18.9 12.78 (02:10) 7.22 (02:10) 0.4 0.4 0 0 0
16-11-2019 21.3 (12:30) 17.3 (00:00) 19.3 13.33 (14:10) 7.78 (15:20) 0.6 0 0.4 0 0.2
15-11-2019 21.5 (15:20) 17.5 (00:00) 19.5 13.61 (16:30) 8.33 (16:30) 0.6 0 0.6 0 0
14-11-2019 22.3 (10:30) 20 (00:00) 21.1 15.28 (23:50) 8.33 (23:59) 0 0 0 0 0
13-11-2019 22.9 (12:50) 19.7 (00:00) 21.3 16.67 (12:10) 9.17 (12:00) 0 0 0 0 0
12-11-2019 22.3 (14:30) 19.4 (00:00) 20.8 13.61 (00:30) 8.33 (09:50) 2.4 0 1.4 1 0

Gráficas

Temp. máximas Temp. mínimas Temp. medias Precipitaciones Rachas de viento máximas Velocidades máximas media en intervalos de 10 minutos

Datos horarios

Fecha y hora oficial Temperatura (ºC) Velocidad del viento (km/h) Dirección del viento Racha (km/h) Dirección de racha Precipitación (mm) Presión (hPa) Tendencia (hPa) Humedad (%)
2019-12-11 23:00:00 18.5 12 Nordeste 33 Nordeste 0 -- -- 63
2019-12-11 22:00:00 18.6 9 Nordeste 35 Nordeste 0 -- -- 63
2019-12-11 21:00:00 18.8 23 Nordeste 41 Nordeste 0 -- -- 63
2019-12-11 20:00:00 18.9 23 Nordeste 39 Nordeste 0 -- -- 61
2019-12-11 19:00:00 19 24 Nordeste 42 Nordeste 0 -- -- 63
2019-12-11 18:00:00 19.5 26 Nordeste 43 Norte 0 -- -- 64
2019-12-11 17:00:00 20.2 28 Nordeste 50 Nordeste 0 -- -- 67
2019-12-11 16:00:00 20.7 28 Nordeste 54 Nordeste 0 -- -- 64
2019-12-11 15:00:00 20.6 35 Nordeste 64 Nordeste 0 -- -- 64
2019-12-11 14:00:00 21 30 Nordeste 54 Nordeste 0 -- -- 63
2019-12-11 13:00:00 21 28 Nordeste 56 Este 0 -- -- 62
2019-12-11 12:00:00 21 28 Nordeste 52 Nordeste 0 -- -- 63
2019-12-11 11:00:00 20.6 29 Nordeste 53 Nordeste 0 -- -- 65
2019-12-11 10:00:00 20.2 26 Nordeste 50 Este 0 -- -- 66
2019-12-11 09:00:00 19.9 31 Nordeste 48 Nordeste 0 -- -- 60
2019-12-11 08:00:00 19.3 23 Nordeste 46 Nordeste 0 -- -- 60
2019-12-11 07:00:00 18.8 28 Nordeste 50 Este 0 -- -- 69
2019-12-11 06:00:00 18.9 28 Nordeste 49 Nordeste 0 -- -- 69
2019-12-11 05:00:00 19.4 32 Nordeste 57 Nordeste 0 -- -- 62
2019-12-11 04:00:00 19.4 26 Nordeste 47 Nordeste 0 -- -- 63
2019-12-11 03:00:00 19.4 27 Nordeste 45 Nordeste 0 -- -- 64
2019-12-11 02:00:00 19.6 22 Nordeste 39 Nordeste 0 -- -- 65
2019-12-11 01:00:00 19.9 15 Nordeste 48 Este 0 -- -- 63
2019-12-11 00:00:00 19.5 21 Nordeste 42 Nordeste 0 -- -- 70
2019-12-10 23:00:00 19.7 30 Nordeste 45 Este 0 -- -- 70
2019-12-10 22:00:00 19.8 16 Nordeste 44 Nordeste 0 -- -- 68
2019-12-10 21:00:00 19.6 18 Nordeste 41 Nordeste 0 -- -- 70
2019-12-10 20:00:00 20 17 Nordeste 32 Nordeste 0 -- -- 66
2019-12-10 19:00:00 19.6 18 Nordeste 38 Nordeste 0 -- -- 68
2019-12-10 18:00:00 20.1 21 Nordeste 43 Nordeste 0 -- -- 66
2019-12-10 17:00:00 20.8 25 Nordeste 45 Nordeste 0 -- -- 64
2019-12-10 16:00:00 21.1 30 Nordeste 46 Nordeste 0 -- -- 59
2019-12-10 15:00:00 21.1 27 Nordeste 46 Nordeste 0 -- -- 61
2019-12-10 14:00:00 21.3 24 Nordeste 41 Nordeste 0 -- -- 60
2019-12-10 13:00:00 21.5 21 Nordeste 40 Nordeste 0 -- -- 60
2019-12-10 12:00:00 21 25 Nordeste 44 Nordeste 0 -- -- 59
2019-12-10 11:00:00 20.8 21 Nordeste 43 Nordeste 0 -- -- 58
2019-12-10 10:00:00 20 20 Nordeste 43 Este 0 -- -- 59
2019-12-10 09:00:00 18.9 21 Nordeste 40 Este 0 -- -- 63
2019-12-10 08:00:00 18.1 18 Nordeste 36 Este 0 -- -- 62
2019-12-10 07:00:00 18 17 Este 35 Nordeste 0 -- -- 65
2019-12-10 06:00:00 18.1 13 Este 35 Nordeste 0 -- -- 61
2019-12-10 05:00:00 17.9 16 Nordeste 30 Nordeste 0 -- -- 64
2019-12-10 04:00:00 18.1 16 Nordeste 36 Este 0 -- -- 66
2019-12-10 03:00:00 18.3 12 Nordeste 28 Nordeste 0 -- -- 63
2019-12-10 02:00:00 18.1 16 Nordeste 27 Nordeste 0 -- -- 67
2019-12-10 01:00:00 18.2 13 Nordeste 30 Nordeste 0 -- -- 65
2019-12-10 00:00:00 18.3 17 Nordeste 32 Nordeste 0 -- -- 68
2019-12-09 23:00:00 18.4 21 Nordeste 30 Nordeste 0 -- -- 68
2019-12-09 22:00:00 18.3 13 Nordeste 28 Nordeste 0 -- -- 70
2019-12-09 21:00:00 18.7 15 Nordeste 27 Nordeste 0 -- -- 67
2019-12-09 20:00:00 18.7 13 Nordeste 25 Este 0 -- -- 69
2019-12-09 19:00:00 18.9 15 Nordeste 45 Nordeste 0 -- -- 68
2019-12-09 18:00:00 19.5 26 Nordeste 51 Nordeste 0 -- -- 66
2019-12-09 17:00:00 20.3 25 Nordeste 48 Nordeste 0 -- -- 65
2019-12-09 16:00:00 20.7 29 Nordeste 48 Nordeste 0 -- -- 63
2019-12-09 15:00:00 21 24 Nordeste 42 Nordeste 0 -- -- 62
2019-12-09 14:00:00 20.9 24 Nordeste 42 Nordeste 0 -- -- 62
2019-12-09 13:00:00 20.8 18 Nordeste 35 Nordeste 0 -- -- 61
2019-12-09 12:00:00 20.3 21 Nordeste 33 Nordeste 0 -- -- 64
2019-12-09 11:00:00 20 18 Nordeste 31 Nordeste 0 -- -- 64
2019-12-09 10:00:00 19.6 14 Nordeste 30 Nordeste 0 -- -- 66
2019-12-09 09:00:00 18.8 15 Nordeste 30 Nordeste 0 -- -- 69
2019-12-09 08:00:00 18.4 13 Nordeste 25 Nordeste 0 -- -- 69
2019-12-09 07:00:00 18.5 11 Nordeste 23 Nordeste 0 -- -- 69
2019-12-09 06:00:00 18.4 12 Nordeste 28 Este 0 -- -- 68
2019-12-09 05:00:00 18.4 10 Nordeste 28 Este 0 -- -- 65
2019-12-09 04:00:00 18.4 12 Nordeste 29 Este 0 -- -- 66
2019-12-09 03:00:00 18.5 11 Nordeste 33 Nordeste 0 -- -- 68
2019-12-09 02:00:00 18.7 14 Nordeste 30 Este 0 -- -- 69
2019-12-09 01:00:00 18.7 13 Nordeste 33 Nordeste 0 -- -- 67
2019-12-09 00:00:00 18.9 15 Nordeste 31 Este 0 -- -- 68
2019-12-08 23:00:00 18.9 18 Nordeste 36 Nordeste 0 -- -- 66
2019-12-08 22:00:00 19 18 Nordeste 37 Norte 0 -- -- 66
2019-12-08 21:00:00 19.1 24 Nordeste 42 Nordeste 0 -- -- 63
2019-12-08 20:00:00 19 19 Nordeste 36 Nordeste 0 -- -- 66
2019-12-08 19:00:00 19 17 Nordeste 33 Nordeste 0 -- -- 64
2019-12-08 18:00:00 19.5 21 Nordeste 43 Este 0 -- -- 61
2019-12-08 17:00:00 20.3 18 Nordeste 40 Nordeste 0 -- -- 58
2019-12-08 16:00:00 20.4 25 Nordeste 47 Nordeste 0 -- -- 61
2019-12-08 15:00:00 20.7 26 Nordeste 49 Nordeste 0 -- -- 61
2019-12-08 14:00:00 20.7 26 Nordeste 46 Nordeste 0 -- -- 58
2019-12-08 13:00:00 20.5 27 Nordeste 45 Nordeste 0 -- -- 60
2019-12-08 12:00:00 19.6 19 Nordeste 37 Nordeste 0 -- -- 64
2019-12-08 11:00:00 20 21 Nordeste 42 Nordeste 0 -- -- 61
2019-12-08 10:00:00 19.6 20 Nordeste 35 Este 0 -- -- 61
2019-12-08 09:00:00 18.8 15 Nordeste 26 Nordeste 0 -- -- 65
2019-12-08 08:00:00 18.3 10 Nordeste 29 Nordeste 0 -- -- 67
2019-12-08 07:00:00 18.4 16 Nordeste 31 Nordeste 0 -- -- 65
2019-12-08 06:00:00 18.7 18 Nordeste 34 Nordeste 0 -- -- 65
2019-12-08 05:00:00 18.7 16 Nordeste 33 Nordeste 0 -- -- 67
2019-12-08 04:00:00 18.9 22 Nordeste 39 Nordeste 0 -- -- 65
2019-12-08 03:00:00 19 22 Nordeste 38 Nordeste 0 -- -- 68
2019-12-08 02:00:00 19 20 Nordeste 43 Norte 0 -- -- 70
2019-12-08 01:00:00 19.2 19 Nordeste 44 Este 0 -- -- 70
2019-12-08 00:00:00 19.3 19 Nordeste 42 Nordeste 0 -- -- 70
2019-12-07 23:00:00 19.4 22 Nordeste 44 Nordeste 0 -- -- 70
2019-12-07 22:00:00 19.4 25 Nordeste 43 Nordeste 0 -- -- 68
2019-12-07 21:00:00 19.5 23 Nordeste 42 Nordeste 0 -- -- 70
2019-12-07 20:00:00 19.4 21 Nordeste 37 Nordeste 0 -- -- 70
2019-12-07 19:00:00 19.4 18 Nordeste 39 Nordeste 0 -- -- 70
2019-12-07 18:00:00 19.8 22 Nordeste 38 Nordeste 0 -- -- 67
2019-12-07 17:00:00 20.4 23 Nordeste 38 Norte 0 -- -- 66
2019-12-07 16:00:00 20.5 22 Nordeste 38 Este 0 -- -- 67
2019-12-07 15:00:00 20.8 22 Nordeste 40 Nordeste 0 -- -- 64
2019-12-07 14:00:00 20.8 20 Nordeste 43 Nordeste 0 -- -- 64
2019-12-07 13:00:00 20.6 21 Nordeste 44 Nordeste 0 -- -- 66
2019-12-07 12:00:00 19.7 20 Nordeste 37 Nordeste 0.4 -- -- 67
2019-12-07 11:00:00 20 15 Nordeste 35 Nordeste 0 -- -- 70
2019-12-07 10:00:00 19 14 Nordeste 26 Nordeste 0 -- -- 72
2019-12-07 09:00:00 17.9 13 Nordeste 42 Nordeste 0 -- -- 74
2019-12-07 08:00:00 18.2 23 Nordeste 44 Nordeste 0 -- -- 74
2019-12-07 07:00:00 18 10 Este 24 Nordeste 0 -- -- 68
2019-12-07 06:00:00 17.5 13 Este 25 Este 0 -- -- 72
2019-12-07 05:00:00 17.3 12 Nordeste 22 Nordeste 0 -- -- 70
2019-12-07 04:00:00 17.6 13 Nordeste 19 Este 0 -- -- 70
2019-12-07 03:00:00 17.8 12 Nordeste 27 Nordeste 0.6 -- -- 72
2019-12-07 02:00:00 18 12 Este 25 Este 0 -- -- 71
2019-12-07 01:00:00 18.1 10 Nordeste 25 Nordeste 0 -- -- 73
2019-12-07 00:00:00 17.7 10 Este 28 Nordeste 1 -- -- 75
2019-12-06 23:00:00 19 15 Nordeste 27 Nordeste 0 -- -- 65
2019-12-06 22:00:00 18.9 16 Nordeste 30 Nordeste 0 -- -- 67
2019-12-06 21:00:00 19.1 15 Nordeste 29 Nordeste 0 -- -- 65
2019-12-06 20:00:00 18.9 13 Nordeste 34 Nordeste 0 -- -- 68
2019-12-06 19:00:00 19.3 15 Nordeste 35 Nordeste 0 -- -- 63
2019-12-06 18:00:00 19.4 17 Nordeste 39 Nordeste 0 -- -- 62
2019-12-06 17:00:00 19.7 21 Norte 40 Norte 0 -- -- 64
2019-12-06 16:00:00 19.4 14 Nordeste 45 Norte 1 -- -- 69
2019-12-06 15:00:00 19.8 17 Nordeste 31 Norte 0 -- -- 64
2019-12-06 14:00:00 20.4 15 Norte 31 Norte 0 -- -- 64
2019-12-06 13:00:00 20.3 16 Nordeste 37 Nordeste 0 -- -- 63
2019-12-06 12:00:00 19.8 21 Nordeste 43 Nordeste 0 -- -- 65
2019-12-06 11:00:00 19.3 21 Nordeste 41 Nordeste 0 -- -- 66
2019-12-06 10:00:00 18.8 23 Nordeste 37 Nordeste 0 -- -- 67
2019-12-06 09:00:00 18.7 14 Nordeste 27 Nordeste 0 -- -- 67
2019-12-06 08:00:00 18.4 16 Nordeste 30 Nordeste 0 -- -- 61
2019-12-06 07:00:00 18.4 16 Nordeste 32 Este 0 -- -- 65
2019-12-06 06:00:00 17.6 19 Nordeste 39 Nordeste 0 -- -- 69
2019-12-06 05:00:00 17.4 15 Nordeste 33 Nordeste 1.4 -- -- 75
2019-12-06 04:00:00 16.5 9 Este 30 Norte 0.4 -- -- 81
2019-12-06 03:00:00 16.5 27 Norte 45 Norte 0.6 -- -- 76
2019-12-06 02:00:00 17.6 17 Nordeste 32 Nordeste 2.4 -- -- 70
2019-12-06 01:00:00 18 17 Nordeste 47 Norte 0.4 -- -- 73
2019-12-06 00:00:00 17.8 17 Norte 44 Norte 0.6 -- -- 74
2019-12-05 23:00:00 17.5 9 Nordeste 24 Nordeste 0 -- -- 74
2019-12-05 22:00:00 17.4 12 Nordeste 50 Noroeste 1 -- -- 74
2019-12-05 21:00:00 16.6 9 Este 44 Norte 1.4 -- -- 75
2019-12-05 20:00:00 18.6 23 Norte 32 Norte 0 -- -- 70
2019-12-05 19:00:00 17.1 13 Este 50 Noroeste 0 -- -- 70
2019-12-05 18:00:00 19.1 26 Norte 46 Norte 0 -- -- 68
2019-12-05 17:00:00 19.1 32 Norte 43 Norte 0 -- -- 67
2019-12-05 16:00:00 19.6 24 Norte 39 Norte 0 -- -- 62
2019-12-05 15:00:00 19 17 Norte 52 Norte 0.2 -- -- 70
2019-12-05 14:00:00 18.2 5 Nordeste 41 Noroeste 0.6 -- -- 76
2019-12-05 13:00:00 18.7 23 Norte 44 Norte 0 -- -- 68
2019-12-05 12:00:00 18.6 36 Norte 54 Norte 0 -- -- 71
2019-12-05 11:00:00 19.1 28 Norte 41 Norte 0 -- -- 64
2019-12-05 10:00:00 18.3 23 Norte 53 Noroeste 0 -- -- 71
2019-12-05 09:00:00 18.8 28 Norte 37 Norte 0 -- -- 69
2019-12-05 08:00:00 18.7 23 Norte 37 Norte 0.2 -- -- 63
2019-12-05 07:00:00 18.8 33 Norte 49 Norte 0 -- -- 63
2019-12-05 06:00:00 18.9 27 Norte 47 Norte 0 -- -- 65
2019-12-05 05:00:00 18.7 21 Norte 36 Norte 0.6 -- -- 67
2019-12-05 04:00:00 17.4 12 Noroeste 38 Norte 1.4 -- -- 85
2019-12-05 03:00:00 16.4 9 Sur 28 Noroeste 5.6 -- -- 90
2019-12-05 02:00:00 17.2 16 Noroeste 27 Noroeste 2.2 -- -- 89
2019-12-05 01:00:00 17.7 22 Noroeste 53 Noroeste 1.2 -- -- 86
2019-12-05 00:00:00 20 11 Sudeste 20 Sudeste 0 -- -- 65
2019-12-04 23:00:00 20 9 Sudoeste 19 Noroeste 0 -- -- 70
2019-12-04 22:00:00 20 4 Sur 10 Sudeste 0 -- -- 62
2019-12-04 21:00:00 19.9 7 Norte 32 Norte 0 -- -- 67
2019-12-04 20:00:00 19.9 23 Norte 31 Norte 0 -- -- 68
2019-12-04 19:00:00 20 20 Norte 24 Norte 0 -- -- 67
2019-12-04 18:00:00 19.9 19 Norte 31 Norte 0 -- -- 69
2019-12-04 17:00:00 20.1 19 Norte 34 Norte 0 -- -- 68
2019-12-04 16:00:00 20.7 9 Norte 17 Nordeste 0 -- -- 64
2019-12-04 15:00:00 21.3 10 Norte 15 Norte 0 -- -- 53
2019-12-04 14:00:00 20.4 8 Sudeste 29 Sur 0 -- -- 55
2019-12-04 13:00:00 18.8 15 Noroeste 48 Noroeste 0 -- -- 69
2019-12-04 12:00:00 19.8 13 Noroeste 30 Noroeste 0 -- -- 69
2019-12-04 11:00:00 20 6 Oeste 12 Sudeste 0 -- -- 63
2019-12-04 10:00:00 20.1 5 Nordeste 19 Sudeste 0 -- -- 52
2019-12-04 09:00:00 20.1 6 Este 15 Este 0 -- -- 56
2019-12-04 08:00:00 18.4 9 Este 16 Sudeste 0 -- -- 61
2019-12-04 07:00:00 18.7 8 Sudeste 19 Sudeste 0 -- -- 59
2019-12-04 06:00:00 18 8 Este 17 Este 0 -- -- 65
2019-12-04 05:00:00 18.1 11 Nordeste 18 Norte 0 -- -- 69
2019-12-04 04:00:00 18.2 10 Este 18 Este 0 -- -- 61
2019-12-04 03:00:00 17.7 9 Este 17 Este 0 -- -- 63
2019-12-04 02:00:00 18.4 6 Este 20 Sudeste 0 -- -- 62
2019-12-04 01:00:00 18.4 9 Este 17 Este 0 -- -- 61
2019-12-04 00:00:00 18.8 8 Este 20 Este 0 -- -- 59
2019-12-03 23:00:00 18.9 7 Este 16 Este 0 -- -- 59
2019-12-03 22:00:00 19.2 8 Este 15 Este 0 -- -- 58
2019-12-03 21:00:00 19.1 7 Este 21 Sudeste 0 -- -- 57
2019-12-03 20:00:00 18.7 9 Sudeste 15 Sudeste 0 -- -- 59
2019-12-03 19:00:00 19.3 8 Nordeste 18 Nordeste 0 -- -- 56
2019-12-03 18:00:00 19.9 9 Nordeste 20 Norte 0 -- -- 55
2019-12-03 17:00:00 20.4 12 Nordeste 25 Norte 0 -- -- 55
2019-12-03 16:00:00 20.7 15 Norte 25 Norte 0 -- -- 54
2019-12-03 15:00:00 20.4 20 Norte 37 Norte 0 -- -- 52
2019-12-03 14:00:00 20.5 22 Norte 32 Norte 0 -- -- 62
2019-12-03 13:00:00 20.3 15 Norte 30 Norte 0 -- -- 59
2019-12-03 12:00:00 20.4 26 Norte 35 Norte 0 -- -- 60
2019-12-03 11:00:00 20.3 16 Norte 27 Nordeste 0 -- -- 58
2019-12-03 10:00:00 19.8 14 Nordeste 36 Norte 0 -- -- 57
2019-12-03 09:00:00 19.4 15 Nordeste 25 Nordeste 0 -- -- 61
2019-12-03 08:00:00 19.1 13 Nordeste 21 Nordeste 0 -- -- 63
2019-12-03 07:00:00 18.8 10 Nordeste 24 Nordeste 0 -- -- 63
2019-12-03 06:00:00 18.7 13 Nordeste 23 Norte 0 -- -- 69
2019-12-03 05:00:00 18.8 8 Nordeste 32 Norte 0 -- -- 61
2019-12-03 04:00:00 18.1 10 Nordeste 27 Norte 0 -- -- 73
2019-12-03 03:00:00 18.5 9 Este 16 Sudeste 0 -- -- 69
2019-12-03 02:00:00 18.3 11 Nordeste 31 Norte 0 -- -- 69
2019-12-03 01:00:00 18.1 13 Este 21 Este 0 -- -- 74
2019-12-03 00:00:00 17.4 9 Este 24 Este 1.2 -- -- 78
2019-12-02 23:00:00 17.5 22 Norte 40 Norte 0.4 -- -- 75
2019-12-02 22:00:00 18.3 14 Norte 25 Nordeste 0 -- -- 76
2019-12-02 21:00:00 18.4 12 Este 29 Nordeste 0 -- -- 75
2019-12-02 20:00:00 19 9 Nordeste 30 Norte 0 -- -- 71
2019-12-02 19:00:00 19.8 14 Norte 32 Norte 0 -- -- 72
2019-12-02 18:00:00 20.2 12 Norte 21 Norte 0 -- -- 67
2019-12-02 17:00:00 20.6 12 Norte 20 Norte 0 -- -- 62
2019-12-02 16:00:00 20.8 12 Norte 26 Norte 0 -- -- 65
2019-12-02 15:00:00 20.9 18 Norte 25 Norte 0 -- -- 59
2019-12-02 14:00:00 21.2 13 Norte 28 Norte 0 -- -- 58
2019-12-02 13:00:00 21.3 14 Nordeste 28 Nordeste 0 -- -- 60
2019-12-02 12:00:00 21 10 Nordeste 21 Norte 0 -- -- 62
2019-12-02 11:00:00 20.4 9 Este 23 Este 0 -- -- 69
2019-12-02 10:00:00 18.6 13 Norte 21 Norte 0.2 -- -- 79
2019-12-02 09:00:00 17.7 11 Este 26 Norte 0 -- -- 82
2019-12-02 08:00:00 19.3 10 Nordeste 19 Nordeste 0 -- -- 71
2019-12-02 07:00:00 19.4 12 Este 22 Este 0 -- -- 64
2019-12-02 06:00:00 19.3 8 Este 23 Este 0 -- -- 70
2019-12-02 05:00:00 19.5 10 Este 22 Este 0 -- -- 73
2019-12-02 04:00:00 19.3 12 Este 26 Nordeste 0 -- -- 72
2019-12-02 03:00:00 19.9 9 Nordeste 31 Este 0 -- -- 64
2019-12-02 02:00:00 19.8 10 Este 23 Este 0 -- -- 60
2019-12-02 01:00:00 19.2 10 Nordeste 28 Nordeste 0 -- -- 66
2019-12-02 00:00:00 19.4 15 Nordeste 30 Nordeste 0 -- -- 66
2019-12-01 23:00:00 19.6 18 Nordeste 39 Nordeste 0 -- -- 68
2019-12-01 22:00:00 20.1 26 Norte 41 Norte 0 -- -- 61
2019-12-01 21:00:00 20.2 21 Norte 44 Norte 0 -- -- 59
2019-12-01 20:00:00 20.2 20 Nordeste 45 Nordeste 0 -- -- 60
2019-12-01 19:00:00 20.3 25 Nordeste 47 Nordeste 0 -- -- 60
2019-12-01 18:00:00 20.5 27 Nordeste 55 Nordeste 0 -- -- 61
2019-12-01 17:00:00 21.1 32 Nordeste 53 Nordeste 0 -- -- 64
2019-12-01 16:00:00 21.9 29 Nordeste 51 Nordeste 0 -- -- 61
2019-12-01 15:00:00 22.3 30 Nordeste 48 Norte 0 -- -- 60
2019-12-01 14:00:00 23.2 20 Nordeste 49 Nordeste 0 -- -- 56
2019-12-01 13:00:00 22.1 32 Nordeste 55 Nordeste 0 -- -- 60
2019-12-01 12:00:00 22.2 26 Nordeste 48 Nordeste 0 -- -- 61
2019-12-01 11:00:00 21.6 27 Nordeste 52 Nordeste 0 -- -- 62
2019-12-01 10:00:00 20.9 27 Nordeste 52 Nordeste 0 -- -- 64
2019-12-01 09:00:00 20.7 15 Nordeste 45 Nordeste 0 -- -- 65
2019-12-01 08:00:00 20 18 Nordeste 58 Nordeste 0 -- -- 64
2019-12-01 07:00:00 19.7 30 Nordeste 59 Nordeste 0 -- -- 68
2019-12-01 06:00:00 19.7 23 Este 51 Este 0 -- -- 67
2019-12-01 05:00:00 20.9 5 Sudoeste 19 Este 0 -- -- 51
2019-12-01 04:00:00 20.6 9 Sur 39 Nordeste 0 -- -- 61
2019-12-01 03:00:00 20.3 12 Este 44 Este 0 -- -- 65
2019-12-01 02:00:00 20.6 14 Este 38 Nordeste 0 -- -- 65
2019-12-01 01:00:00 21 8 Sur 44 Nordeste 0 -- -- 61
2019-12-01 00:00:00 20.6 24 Nordeste 48 Nordeste 0 -- -- 71
2019-11-30 23:00:00 20.5 20 Nordeste 42 Nordeste 0 -- -- 73
2019-11-30 22:00:00 20.7 17 Este 30 Sudeste 0 -- -- 68
2019-11-30 21:00:00 21.1 20 Este 27 Este 0 -- -- 67
2019-11-30 20:00:00 22.3 17 Este 22 Sudeste 0 -- -- 62
2019-11-30 19:00:00 22.8 11 Este 18 Este 0 -- -- 61
2019-11-30 18:00:00 23.6 13 Este 17 Este 0 -- -- 67
2019-11-30 17:00:00 26 5 Sudeste 28 Este 0 -- -- 58
2019-11-30 16:00:00 25.4 12 Este 26 Nordeste 0 -- -- 60
2019-11-30 15:00:00 23.4 8 Sudeste 12 Sudeste 0 -- -- 67
2019-11-30 14:00:00 25.2 7 Sur 14 Sur 0 -- -- 53
2019-11-30 13:00:00 25.6 5 Sur 8 Sur 0 -- -- 38
2019-11-30 12:00:00 25.2 2 Oeste 7 Sudeste 0 -- -- 45
2019-11-30 11:00:00 25.2 4 Sur 6 Sudeste 0 -- -- 48
2019-11-30 10:00:00 24.2 4 Sur 10 Sudeste 0 -- -- 51
2019-11-30 09:00:00 23.8 2 Sudeste 9 Este 0 -- -- 42
2019-11-30 08:00:00 20.7 3 Este 5 Norte 0 -- -- 45
2019-11-30 07:00:00 20.9 0 Calma 6 Sur 0 -- -- 41
2019-11-30 06:00:00 21.1 5 Sur 34 Este 0 -- -- 53
2019-11-30 05:00:00 23 16 Sudeste 26 Este 0 -- -- 42
2019-11-30 04:00:00 23.1 18 Este 26 Este 0 -- -- 42
2019-11-30 03:00:00 24.4 12 Sudeste 24 Sudeste 0 -- -- 33
2019-11-30 02:00:00 24 14 Sudeste 25 Sudeste 0 -- -- 33
2019-11-30 01:00:00 23.1 10 Sudeste 27 Sudeste 0 -- -- 44
2019-11-30 00:00:00 23.8 13 Sudeste 30 Sudeste 0 -- -- 39
2019-11-29 23:00:00 23.5 18 Este 27 Este 0 -- -- 39
2019-11-29 22:00:00 22.4 13 Sudeste 24 Sudeste 0 -- -- 49
2019-11-29 21:00:00 22.5 5 Este 17 Este 0 -- -- 51
2019-11-29 20:00:00 22.1 0 Calma 20 Este 0 -- -- 71
2019-11-29 19:00:00 22.7 9 Este 18 Este 0 -- -- 64
2019-11-29 18:00:00 22.9 4 Oeste 7 Oeste 0 -- -- 66
2019-11-29 17:00:00 25.4 4 Sur 8 Sur 0 -- -- 55
2019-11-29 16:00:00 25.2 5 Sudoeste 10 Sur 0 -- -- 63
2019-11-29 15:00:00 25.4 4 Sur 9 Sudeste 0 -- -- 58
2019-11-29 14:00:00 23.7 6 Sudoeste 11 Sudoeste 0 -- -- 67
2019-11-29 13:00:00 25.2 5 Sur 13 Sudoeste 0 -- -- 47
2019-11-29 12:00:00 23.9 7 Sudoeste 10 Sudoeste 0 -- -- 59
2019-11-29 11:00:00 24 4 Sudeste 17 Sur 0 -- -- 45
2019-11-29 10:00:00 22.7 7 Sur 13 Este 0 -- -- 61
2019-11-29 09:00:00 23.7 9 Sudeste 15 Sudeste 0 -- -- 48
2019-11-29 08:00:00 20.9 7 Sur 9 Sur 0 -- -- 58
2019-11-29 07:00:00 20.5 3 Sur 22 Sudeste 0 -- -- 64
2019-11-29 06:00:00 21.6 11 Sudeste 38 Nordeste 0 -- -- 58
2019-11-29 05:00:00 22.2 24 Nordeste 44 Nordeste 0 -- -- 52
2019-11-29 04:00:00 22.2 23 Nordeste 36 Nordeste 0 -- -- 51
2019-11-29 03:00:00 23 20 Nordeste 41 Nordeste 0 -- -- 45
2019-11-29 02:00:00 22.5 26 Nordeste 45 Nordeste 0 -- -- 45
2019-11-29 01:00:00 22.6 28 Nordeste 46 Nordeste 0 -- -- 44
2019-11-29 00:00:00 22.5 20 Nordeste 46 Nordeste 0 -- -- 46
2019-11-28 23:00:00 23.2 24 Nordeste 44 Nordeste 0 -- -- 44
2019-11-28 22:00:00 22.6 16 Este 37 Este 0 -- -- 49
2019-11-28 21:00:00 21.5 13 Este 44 Este 0 -- -- 60
2019-11-28 20:00:00 21 15 Este 40 Nordeste 0 -- -- 66
2019-11-28 19:00:00 20.8 10 Este 31 Nordeste 0 -- -- 70
2019-11-28 18:00:00 21.3 10 Este 24 Nordeste 0 -- -- 69
2019-11-28 17:00:00 21.6 12 Este 32 Nordeste 0 -- -- 68
2019-11-28 16:00:00 21.8 13 Nordeste 31 Este 0 -- -- 69
2019-11-28 15:00:00 22.1 13 Nordeste 34 Nordeste 0 -- -- 67
2019-11-28 14:00:00 22.2 17 Nordeste 30 Nordeste 0 -- -- 66
2019-11-28 13:00:00 23.3 6 Norte 19 Norte 0 -- -- 62
2019-11-28 12:00:00 22.6 6 Sur 15 Sudoeste 0 -- -- 65
2019-11-28 11:00:00 21.7 5 Sur 10 Sur 0 -- -- 70
2019-11-28 10:00:00 21 5 Sudeste 16 Nordeste 0 -- -- 69
2019-11-28 09:00:00 19.7 6 Este 18 Este 0 -- -- 65
2019-11-28 08:00:00 18.8 10 Sudeste 21 Sudeste 0 -- -- 67
2019-11-28 07:00:00 19.2 8 Sudeste 37 Este 0 -- -- 65
2019-11-28 06:00:00 19.3 20 Este 47 Nordeste 0 -- -- 69
2019-11-28 05:00:00 19.3 23 Nordeste 41 Nordeste 0 -- -- 71
2019-11-28 04:00:00 19.2 18 Nordeste 38 Este 0 -- -- 72
2019-11-28 03:00:00 19.5 17 Nordeste 44 Nordeste 0 -- -- 72
2019-11-28 02:00:00 19.7 24 Nordeste 47 Nordeste 0 -- -- 71
2019-11-28 01:00:00 19.8 29 Nordeste 45 Nordeste 0 -- -- 71
2019-11-28 00:00:00 19.7 25 Nordeste 42 Nordeste 0 -- -- 72
2019-11-27 23:00:00 19.8 24 Nordeste 45 Nordeste 0 -- -- 72
2019-11-27 22:00:00 19.7 20 Nordeste 44 Norte 0 -- -- 73
2019-11-27 21:00:00 19.9 26 Nordeste 42 Nordeste 0 -- -- 71
2019-11-27 20:00:00 19.9 22 Nordeste 42 Nordeste 0 -- -- 71
2019-11-27 19:00:00 20 22 Nordeste 37 Nordeste 0 -- -- 69
2019-11-27 18:00:00 20.5 17 Nordeste 39 Nordeste 0 -- -- 68
2019-11-27 17:00:00 21.4 21 Nordeste 39 Nordeste 0 -- -- 65
2019-11-27 16:00:00 22 21 Nordeste 54 Nordeste 0 -- -- 64
2019-11-27 15:00:00 22.3 20 Nordeste 46 Nordeste 0 -- -- 63
2019-11-27 14:00:00 22.2 24 Nordeste 46 Nordeste 0 -- -- 63
2019-11-27 13:00:00 22.5 23 Nordeste 42 Nordeste 0 -- -- 63
2019-11-27 05:00:00 19.6 21 Nordeste 36 Nordeste 0 -- -- 73
2019-11-27 04:00:00 19.6 13 Nordeste 41 Este 0 -- -- 70
2019-11-27 03:00:00 19.6 18 Nordeste 39 Nordeste 0 -- -- 72
2019-11-27 02:00:00 19.8 22 Nordeste 43 Nordeste 0 -- -- 72
2019-11-27 01:00:00 19.8 19 Nordeste 40 Nordeste 0 -- -- 70
2019-11-27 00:00:00 19.9 22 Nordeste 39 Nordeste 0 -- -- 71
2019-11-26 23:00:00 19.9 22 Nordeste 42 Nordeste 0 -- -- 69
2019-11-26 22:00:00 20 21 Nordeste 37 Nordeste 0 -- -- 71
2019-11-26 21:00:00 20.1 21 Nordeste 35 Nordeste 0 -- -- 71
2019-11-26 20:00:00 20 17 Nordeste 40 Nordeste 0 -- -- 71
2019-11-26 19:00:00 20.2 21 Nordeste 37 Nordeste 0 -- -- 71
2019-11-26 18:00:00 20.6 18 Nordeste 33 Nordeste 0 -- -- 70
2019-11-26 17:00:00 20.9 18 Nordeste 37 Nordeste 0 -- -- 69
2019-11-26 16:00:00 21.2 15 Nordeste 30 Nordeste 0 -- -- 67
2019-11-26 15:00:00 21.7 16 Nordeste 31 Norte 0 -- -- 65
2019-11-26 14:00:00 22 20 Norte 29 Norte 0 -- -- 64
2019-11-26 13:00:00 22.5 15 Norte 33 Nordeste 0 -- -- 62
2019-11-26 12:00:00 22.1 14 Nordeste 33 Nordeste 0 -- -- 61
2019-11-26 11:00:00 21.6 16 Nordeste 28 Nordeste 0 -- -- 62
2019-11-26 10:00:00 21.1 9 Sur 33 Nordeste 0 -- -- 64
2019-11-26 09:00:00 20.3 9 Este 27 Nordeste 0 -- -- 65
2019-11-26 08:00:00 19 5 Este 30 Este 0 -- -- 70
2019-11-26 07:00:00 18.8 14 Este 42 Nordeste 0 -- -- 70
2019-11-26 06:00:00 19.3 15 Nordeste 36 Nordeste 0 -- -- 67
2019-11-26 05:00:00 19.5 18 Nordeste 49 Nordeste 0 -- -- 69
2019-11-26 04:00:00 19.4 19 Nordeste 38 Nordeste 0 -- -- 69
2019-11-26 03:00:00 19.5 20 Nordeste 41 Nordeste 0 -- -- 68
2019-11-26 02:00:00 19.6 20 Nordeste 35 Nordeste 0 -- -- 68
2019-11-26 01:00:00 19.7 19 Nordeste 40 Nordeste 0 -- -- 70
2019-11-26 00:00:00 19.9 22 Nordeste 39 Nordeste 0 -- -- 66
2019-11-25 23:00:00 19.7 15 Nordeste 30 Nordeste 0 -- -- 70
2019-11-25 22:00:00 19.9 16 Nordeste 30 Nordeste 0 -- -- 69
2019-11-25 21:00:00 20.1 13 Nordeste 29 Nordeste 0 -- -- 67
2019-11-25 20:00:00 20.1 17 Nordeste 31 Nordeste 0 -- -- 69
2019-11-25 19:00:00 20.1 19 Nordeste 36 Nordeste 0 -- -- 67
2019-11-25 18:00:00 20.3 22 Nordeste 37 Nordeste 0 -- -- 66
2019-11-25 17:00:00 20.7 17 Nordeste 33 Nordeste 0 -- -- 64
2019-11-25 16:00:00 21 18 Norte 41 Norte 0 -- -- 62
2019-11-25 15:00:00 21.6 22 Norte 36 Norte 0 -- -- 62
2019-11-25 14:00:00 21.8 15 Nordeste 37 Nordeste 0 -- -- 61
2019-11-25 13:00:00 22 21 Nordeste 38 Nordeste 0 -- -- 59
2019-11-25 12:00:00 21.6 22 Nordeste 40 Nordeste 0 -- -- 61
2019-11-25 11:00:00 21.9 21 Nordeste 39 Este 0 -- -- 60
2019-11-25 10:00:00 20.9 25 Nordeste 45 Nordeste 0 -- -- 63
2019-11-25 09:00:00 20.7 19 Nordeste 42 Este 0 -- -- 60
2019-11-25 08:00:00 19.1 14 Nordeste 28 Nordeste 0 -- -- 62
2019-11-25 07:00:00 18.6 12 Nordeste 24 Nordeste 0 -- -- 66
2019-11-25 06:00:00 18.7 12 Nordeste 19 Norte 0 -- -- 64
2019-11-25 05:00:00 18.5 10 Nordeste 21 Nordeste 0 -- -- 65
2019-11-25 04:00:00 18.8 17 Nordeste 29 Nordeste 0 -- -- 62
2019-11-25 03:00:00 19.2 16 Nordeste 26 Nordeste 0 -- -- 61
2019-11-25 02:00:00 19.6 17 Nordeste 33 Nordeste 0 -- -- 61
2019-11-25 01:00:00 19.5 21 Nordeste 44 Nordeste 0 -- -- 60
2019-11-25 00:00:00 19.8 25 Nordeste 44 Nordeste 0 -- -- 60
2019-11-24 23:00:00 19.9 18 Nordeste 38 Nordeste 0 -- -- 62
2019-11-24 22:00:00 19.9 15 Nordeste 26 Nordeste 0 -- -- 62
2019-11-24 21:00:00 20.2 13 Nordeste 28 Nordeste 0 -- -- 60
2019-11-24 20:00:00 20.2 15 Nordeste 33 Nordeste 0 -- -- 64
2019-11-24 19:00:00 20.3 18 Nordeste 35 Nordeste 0 -- -- 66
2019-11-24 18:00:00 20.9 18 Nordeste 30 Nordeste 0 -- -- 65
2019-11-24 17:00:00 21.3 18 Nordeste 39 Nordeste 0 -- -- 62
2019-11-24 16:00:00 21.8 23 Nordeste 38 Nordeste 0 -- -- 64
2019-11-24 15:00:00 22.5 18 Nordeste 31 Nordeste 0 -- -- 61
2019-11-24 14:00:00 22.4 22 Norte 36 Norte 0 -- -- 60
2019-11-24 13:00:00 22.4 19 Nordeste 34 Nordeste 0 -- -- 60
2019-11-24 12:00:00 22.2 19 Nordeste 35 Este 0 -- -- 65
2019-11-24 11:00:00 21 17 Nordeste 30 Nordeste 0 -- -- 72
2019-11-24 10:00:00 20.3 12 Nordeste 29 Nordeste 0 -- -- 79
2019-11-24 09:00:00 20.6 12 Nordeste 33 Este 0 -- -- 74
2019-11-24 08:00:00 19 13 Nordeste 26 Nordeste 0 -- -- 83
2019-11-24 07:00:00 18.9 14 Nordeste 24 Nordeste 0 -- -- 84
2019-11-24 06:00:00 18.8 12 Nordeste 31 Norte 0.6 -- -- 85
2019-11-24 05:00:00 20.3 12 Nordeste 21 Nordeste 0 -- -- 72
2019-11-24 04:00:00 19.9 10 Nordeste 22 Este 0 -- -- 74
2019-11-24 03:00:00 19.8 9 Nordeste 18 Nordeste 0 -- -- 78
2019-11-24 02:00:00 20.2 10 Nordeste 24 Nordeste 0 -- -- 75
2019-11-24 01:00:00 20.3 8 Nordeste 18 Nordeste 0 -- -- 73
2019-11-24 00:00:00 20.6 10 Nordeste 25 Este 0 -- -- 70
2019-11-23 23:00:00 20.7 12 Nordeste 26 Este 0 -- -- 69
2019-11-23 22:00:00 21 11 Este 29 Este 0.2 -- -- 65
2019-11-23 21:00:00 21.2 14 Este 32 Nordeste 0 -- -- 63
2019-11-23 20:00:00 20.7 13 Nordeste 23 Este 0 -- -- 76
2019-11-23 19:00:00 20.7 14 Nordeste 25 Este 0 -- -- 81
2019-11-23 18:00:00 21.4 13 Nordeste 24 Nordeste 0 -- -- 78
2019-11-23 17:00:00 22 13 Nordeste 27 Norte 0 -- -- 77
2019-11-23 16:00:00 21.7 15 Norte 23 Norte 0 -- -- 79
2019-11-23 15:00:00 22.4 12 Norte 25 Norte 0 -- -- 74
2019-11-23 14:00:00 22.2 17 Norte 27 Norte 0 -- -- 75
2019-11-23 13:00:00 21.7 15 Norte 22 Norte 0 -- -- 82
2019-11-23 12:00:00 21.9 12 Norte 23 Nordeste 0.2 -- -- 78
2019-11-23 11:00:00 22.5 5 Este 20 Nordeste 0 -- -- 71
2019-11-23 10:00:00 21.9 11 Este 19 Este 0 -- -- 73
2019-11-23 09:00:00 20.8 6 Este 14 Sudeste 0 -- -- 82
2019-11-23 08:00:00 20.2 11 Sudeste 27 Norte 0.2 -- -- 83
2019-11-23 07:00:00 21.4 8 Nordeste 24 Norte 0 -- -- 79
2019-11-23 06:00:00 21.6 5 Nordeste 15 Norte 0 -- -- 74
2019-11-23 05:00:00 21.6 8 Nordeste 19 Este 0 -- -- 72
2019-11-23 04:00:00 21.7 6 Este 12 Este 0 -- -- 71
2019-11-23 03:00:00 21.7 6 Este 17 Este 0 -- -- 70
2019-11-23 02:00:00 21.7 11 Este 17 Este 0 -- -- 70
2019-11-23 01:00:00 20.7 7 Este 18 Este 0 -- -- 74
2019-11-23 00:00:00 20.1 5 Este 10 Este 0 -- -- 83
2019-11-22 23:00:00 20.5 6 Sudoeste 14 Oeste 0 -- -- 84
2019-11-22 22:00:00 20.7 7 Sudoeste 10 Sudoeste 0 -- -- 84
2019-11-22 21:00:00 21 8 Sudoeste 13 Sudoeste 0 -- -- 81
2019-11-22 20:00:00 21.3 10 Sudoeste 15 Sur 0 -- -- 76
2019-11-22 19:00:00 21.7 8 Sur 12 Sudoeste 0 -- -- 73
2019-11-22 18:00:00 22.8 6 Sur 19 Norte 0 -- -- 65
2019-11-22 17:00:00 22.1 16 Norte 18 Norte 0 -- -- 72
2019-11-22 16:00:00 22.4 14 Norte 16 Norte 0 -- -- 71
2019-11-22 15:00:00 22.3 16 Norte 22 Norte 0 -- -- 71
2019-11-22 14:00:00 22 21 Norte 33 Norte 0 -- -- 71
2019-11-22 13:00:00 22.1 19 Norte 26 Norte 0 -- -- 69
2019-11-22 12:00:00 21.7 15 Norte 22 Norte 0 -- -- 69
2019-11-22 11:00:00 22 9 Norte 14 Nordeste 0 -- -- 73
2019-11-22 10:00:00 20.9 6 Nordeste 13 Sudeste 0 -- -- 79
2019-11-22 09:00:00 20 5 Nordeste 15 Norte 0 -- -- 85
2019-11-22 08:00:00 19.9 10 Nordeste 16 Nordeste 0 -- -- 84
2019-11-22 07:00:00 20 6 Este 11 Sudeste 0 -- -- 83
2019-11-22 06:00:00 19.7 2 Nordeste 14 Nordeste 0 -- -- 79
2019-11-22 05:00:00 19.5 2 Sudeste 7 Sudoeste 0 -- -- 81
2019-11-22 04:00:00 19.2 4 Nordeste 10 Este 0 -- -- 80
2019-11-22 03:00:00 19.2 4 Este 11 Este 0 -- -- 78
2019-11-22 02:00:00 19.3 7 Este 12 Este 0 -- -- 77
2019-11-22 01:00:00 19.6 5 Este 12 Este 0 -- -- 75
2019-11-22 00:00:00 20.4 4 Este 22 Sudoeste 0 -- -- 75
2019-11-21 23:00:00 19.5 2 Este 9 Este 0 -- -- 72
2019-11-21 22:00:00 19.8 3 Este 7 Este 0 -- -- 71
2019-11-21 21:00:00 20.1 3 Nordeste 11 Este 0 -- -- 72
2019-11-21 20:00:00 20.3 5 Este 22 Sudoeste 0 -- -- 71
2019-11-21 19:00:00 20.8 12 Sudoeste 25 Sudoeste 0 -- -- 74
2019-11-21 18:00:00 21.1 18 Sudoeste 23 Sudoeste 0 -- -- 73
2019-11-21 17:00:00 22 14 Sudoeste 26 Sudoeste 0 -- -- 70
2019-11-21 16:00:00 22.2 18 Sudoeste 32 Sudoeste 0 -- -- 67
2019-11-21 15:00:00 22.1 19 Sudoeste 27 Sudoeste 0 -- -- 70
2019-11-21 14:00:00 21.7 16 Sudoeste 21 Sudoeste 0 -- -- 72
2019-11-21 13:00:00 21.7 15 Oeste 23 Oeste 0 -- -- 73
2019-11-21 12:00:00 21.5 17 Oeste 21 Oeste 0 -- -- 73
2019-11-21 11:00:00 21.8 6 Noroeste 11 Oeste 0 -- -- 69
2019-11-21 10:00:00 21.6 0 Calma 12 Sur 0 -- -- 67
2019-11-21 09:00:00 20.4 5 Este 14 Este 0 -- -- 68
2019-11-21 08:00:00 19.7 7 Este 11 Este 0 -- -- 69
2019-11-21 07:00:00 -- -- -- -- -- -- -- -- --
2019-11-21 06:00:00 -- -- -- -- -- -- -- -- --
2019-11-21 05:00:00 -- -- -- -- -- -- -- -- --
2019-11-21 04:00:00 -- -- -- -- -- -- -- -- --
2019-11-21 03:00:00 -- -- -- -- -- -- -- -- --
2019-11-21 02:00:00 -- -- -- -- -- -- -- -- --
2019-11-21 01:00:00 -- -- -- -- -- -- -- -- --
2019-11-21 00:00:00 -- -- -- -- -- -- -- -- --
2019-11-20 23:00:00 -- -- -- -- -- -- -- -- --
2019-11-20 22:00:00 -- -- -- -- -- -- -- -- --
2019-11-20 21:00:00 -- -- -- -- -- -- -- -- --
2019-11-20 20:00:00 19.9 3 Sudeste 9 Sur 0 -- -- 74
2019-11-20 19:00:00 20.5 7 Sudoeste 10 Sudoeste 0 -- -- 74
2019-11-20 18:00:00 21 7 Sudoeste 13 Sudoeste 0 -- -- 72
2019-11-20 17:00:00 22 9 Sudoeste 15 Sudoeste 0 -- -- 68
2019-11-20 16:00:00 22.3 12 Sudoeste 18 Sudoeste 0 -- -- 67
2019-11-20 15:00:00 22.1 12 Sudoeste 19 Sudoeste 0 -- -- 69
2019-11-20 14:00:00 21.8 15 Sudoeste 25 Sudoeste 0 -- -- 71
2019-11-20 13:00:00 21.4 20 Sudoeste 29 Sudoeste 0 -- -- 72
2019-11-20 12:00:00 21.7 18 Sudoeste 26 Sudoeste 0 -- -- 68
2019-11-20 11:00:00 22.3 4 Sudoeste 8 Sur 0 -- -- 55
2019-11-20 10:00:00 22.4 6 Sur 9 Sur 0 -- -- 56
2019-11-20 09:00:00 20.8 5 Este 9 Este 0 -- -- 60
2019-11-20 08:00:00 17.9 5 Este 14 Este 0 -- -- 68
2019-11-20 07:00:00 17.6 5 Este 12 Este 0 -- -- 71
2019-11-20 06:00:00 17.8 8 Este 14 Este 0 -- -- 68
2019-11-20 05:00:00 18 4 Este 12 Este 0 -- -- 69
2019-11-20 04:00:00 18.2 9 Este 19 Este 0 -- -- 64
2019-11-20 03:00:00 17.8 10 Este 15 Este 0 -- -- 67
2019-11-20 02:00:00 18.1 8 Este 13 Este 0 -- -- 66
2019-11-20 01:00:00 18.3 9 Este 17 Este 0 -- -- 64
2019-11-20 00:00:00 18.6 10 Este 17 Sudeste 0 -- -- 66
2019-11-19 23:00:00 19 11 Este 16 Este 0 -- -- 70
2019-11-19 22:00:00 19.4 9 Sudeste 13 Este 0 -- -- 71
2019-11-19 21:00:00 19.5 8 Este 13 Este 0 -- -- 71
2019-11-19 20:00:00 19.8 5 Este 9 Este 0 -- -- 70
2019-11-19 19:00:00 20.1 5 Nordeste 23 Norte 0 -- -- 66
2019-11-19 18:00:00 20.6 17 Norte 23 Norte 0 -- -- 69
2019-11-19 17:00:00 21.3 14 Norte 24 Norte 0 -- -- 67
2019-11-19 16:00:00 21.3 15 Norte 26 Norte 0 -- -- 66
2019-11-19 15:00:00 21.4 14 Norte 26 Norte 0 -- -- 67
2019-11-19 14:00:00 21.5 12 Nordeste 24 Nordeste 0 -- -- 68
2019-11-19 13:00:00 20.8 10 Nordeste 26 Norte 0 -- -- 73
2019-11-19 12:00:00 20.3 21 Norte 33 Norte 0 -- -- 73
2019-11-19 11:00:00 20.1 23 Norte 28 Norte 0 -- -- 74
2019-11-19 10:00:00 20 7 Nordeste 20 Norte 0 -- -- 74
2019-11-19 09:00:00 19.7 7 Este 19 Este 0 -- -- 69
2019-11-19 08:00:00 18.9 12 Este 21 Sudeste 0 -- -- 69
2019-11-19 07:00:00 18.4 5 Este 21 Este 0.2 -- -- 72
2019-11-19 06:00:00 18.9 8 Este 16 Este 0 -- -- 64
2019-11-19 05:00:00 18.5 10 Este 18 Sudeste 0 -- -- 66
2019-11-19 04:00:00 18.4 7 Este 15 Norte 0 -- -- 71
2019-11-19 03:00:00 18.7 7 Nordeste 12 Este 0 -- -- 69
2019-11-19 02:00:00 18.6 4 Este 24 Sudeste 0 -- -- 72
2019-11-19 01:00:00 19.4 7 Este 23 Este 0 -- -- 63
2019-11-19 00:00:00 19.3 8 Este 22 Este 0 -- -- 60
2019-11-18 23:00:00 19.5 10 Este 24 Nordeste 0 -- -- 60
2019-11-18 22:00:00 19.5 12 Este 22 Nordeste 0 -- -- 61
2019-11-18 21:00:00 19.4 12 Nordeste 22 Este 0 -- -- 65
2019-11-18 20:00:00 19.8 11 Nordeste 24 Nordeste 0 -- -- 63
2019-11-18 19:00:00 20 12 Este 28 Este 0 -- -- 58
2019-11-18 18:00:00 20.6 17 Nordeste 34 Nordeste 0 -- -- 56
2019-11-18 17:00:00 21.8 17 Este 37 Nordeste 0 -- -- 49
2019-11-18 16:00:00 22.2 19 Nordeste 43 Nordeste 0 -- -- 50
2019-11-18 15:00:00 21.8 25 Nordeste 44 Nordeste 0 -- -- 52
2019-11-18 14:00:00 22 24 Nordeste 42 Norte 0 -- -- 45
2019-11-18 13:00:00 21.9 23 Nordeste 42 Nordeste 0 -- -- 46
2019-11-18 12:00:00 21.6 25 Nordeste 46 Nordeste 0 -- -- 47
2019-11-18 11:00:00 21.1 24 Nordeste 40 Nordeste 0 -- -- 54
2019-11-18 10:00:00 21.1 16 Nordeste 42 Este 0 -- -- 52
2019-11-18 09:00:00 20.5 10 Este 31 Este 0 -- -- 51
2019-11-18 08:00:00 18.8 16 Este 34 Este 0 -- -- 61
2019-11-18 07:00:00 18.6 13 Este 32 Nordeste 0 -- -- 59
2019-11-18 06:00:00 18.2 17 Nordeste 32 Nordeste 0 -- -- 64
2019-11-18 05:00:00 18.3 15 Nordeste 33 Nordeste 0 -- -- 65
2019-11-18 04:00:00 18.2 16 Nordeste 33 Este 0 -- -- 63
2019-11-18 03:00:00 18.3 15 Nordeste 28 Nordeste 0 -- -- 62
2019-11-18 02:00:00 18.3 17 Este 31 Este 0 -- -- 62
2019-11-18 01:00:00 18.1 12 Nordeste 27 Nordeste 0 -- -- 64
2019-11-18 00:00:00 18.5 14 Nordeste 33 Este 0 -- -- 63
2019-11-17 23:00:00 18.8 15 Este 30 Este 0 -- -- 62
2019-11-17 22:00:00 18.7 16 Nordeste 32 Este 0 -- -- 66
2019-11-17 21:00:00 18.4 17 Nordeste 31 Nordeste 0 -- -- 68
2019-11-17 20:00:00 18.4 15 Nordeste 30 Nordeste 0 -- -- 70
2019-11-17 19:00:00 17.8 18 Nordeste 31 Nordeste 0 -- -- 74
2019-11-17 18:00:00 18.5 15 Nordeste 36 Este 0 -- -- 66
2019-11-17 17:00:00 19.3 23 Nordeste 42 Nordeste 0 -- -- 63
2019-11-17 16:00:00 20.6 19 Nordeste 38 Este 0 -- -- 55
2019-11-17 15:00:00 20 23 Nordeste 41 Nordeste 0 -- -- 57
2019-11-17 14:00:00 19.4 17 Nordeste 41 Nordeste 0 -- -- 63
2019-11-17 13:00:00 20.8 24 Nordeste 44 Este 0 -- -- 47
2019-11-17 12:00:00 20.2 21 Nordeste 41 Nordeste 0 -- -- 54
2019-11-17 11:00:00 19.8 16 Nordeste 39 Sudeste 0 -- -- 58
2019-11-17 10:00:00 18.8 19 Nordeste 40 Este 0 -- -- 66
2019-11-17 09:00:00 18.2 13 Nordeste 35 Nordeste 0 -- -- 64
2019-11-17 08:00:00 17.6 11 Este 31 Nordeste 0 -- -- 69
2019-11-17 07:00:00 17.7 18 Nordeste 41 Nordeste 0 -- -- 66
2019-11-17 06:00:00 18.6 14 Nordeste 25 Nordeste 0 -- -- 61
2019-11-17 05:00:00 18 14 Este 35 Nordeste 0 -- -- 66
2019-11-17 04:00:00 18.3 14 Nordeste 38 Nordeste 0 -- -- 66
2019-11-17 03:00:00 17.8 17 Nordeste 46 Nordeste 0.4 -- -- 73
2019-11-17 02:00:00 18.9 15 Nordeste 33 Este 0 -- -- 60
2019-11-17 01:00:00 18.4 15 Nordeste 36 Nordeste 0 -- -- 67
2019-11-17 00:00:00 17.7 23 Nordeste 37 Nordeste 0 -- -- 73
2019-11-16 23:00:00 18.7 17 Nordeste 37 Nordeste 0 -- -- 67
2019-11-16 22:00:00 18 21 Nordeste 46 Nordeste 0 -- -- 73
2019-11-16 21:00:00 19 24 Nordeste 42 Nordeste 0.2 -- -- 66
2019-11-16 20:00:00 19.1 20 Nordeste 41 Nordeste 0 -- -- 68
2019-11-16 19:00:00 19.7 22 Nordeste 40 Nordeste 0 -- -- 59
2019-11-16 18:00:00 19.9 22 Nordeste 44 Nordeste 0 -- -- 55
2019-11-16 17:00:00 20.2 23 Nordeste 44 Nordeste 0 -- -- 54
2019-11-16 16:00:00 20.6 24 Nordeste 48 Norte 0 -- -- 53
2019-11-16 15:00:00 20.8 24 Nordeste 48 Norte 0 -- -- 50
2019-11-16 14:00:00 21.1 26 Nordeste 44 Nordeste 0 -- -- 49
2019-11-16 13:00:00 20.9 24 Nordeste 44 Norte 0 -- -- 51
2019-11-16 12:00:00 21 23 Nordeste 40 Nordeste 0 -- -- 50
2019-11-16 11:00:00 20 24 Nordeste 38 Nordeste 0 -- -- 53
2019-11-16 10:00:00 19.3 24 Norte 37 Nordeste 0 -- -- 57
2019-11-16 09:00:00 17.9 15 Este 37 Nordeste 0.2 -- -- 71
2019-11-16 08:00:00 18.3 15 Nordeste 38 Norte 0 -- -- 68
2019-11-16 07:00:00 17.5 22 Nordeste 44 Norte 0.2 -- -- 72
2019-11-16 06:00:00 18.3 22 Nordeste 41 Nordeste 0 -- -- 68
2019-11-16 05:00:00 18.4 16 Nordeste 37 Nordeste 0 -- -- 66
2019-11-16 04:00:00 18.5 18 Nordeste 46 Norte 0 -- -- 63
2019-11-16 03:00:00 18.4 14 Nordeste 31 Este 0 -- -- 65
2019-11-16 02:00:00 18.4 23 Nordeste 39 Nordeste 0 -- -- 66
2019-11-16 01:00:00 18.7 14 Nordeste 44 Nordeste 0 -- -- 65
2019-11-16 00:00:00 19 18 Nordeste 36 Norte 0 -- -- 62
2019-11-15 23:00:00 18.9 23 Nordeste 42 Norte 0 -- -- 65
2019-11-15 22:00:00 19.3 21 Nordeste 42 Nordeste 0 -- -- 61
2019-11-15 21:00:00 19.3 26 Nordeste 44 Nordeste 0 -- -- 63
2019-11-15 20:00:00 19.4 23 Nordeste 40 Nordeste 0 -- -- 62
2019-11-15 19:00:00 19.5 21 Nordeste 43 Nordeste 0 -- -- 59
2019-11-15 18:00:00 19.7 20 Nordeste 42 Nordeste 0 -- -- 61
2019-11-15 17:00:00 19.9 21 Nordeste 49 Nordeste 0 -- -- 57
2019-11-15 16:00:00 20.5 22 Nordeste 41 Nordeste 0 -- -- 59
2019-11-15 15:00:00 21.3 17 Nordeste 40 Nordeste 0 -- -- 53
2019-11-15 14:00:00 20.7 19 Nordeste 40 Nordeste 0 -- -- 57
2019-11-15 13:00:00 21 20 Nordeste 45 Nordeste 0 -- -- 62
2019-11-15 12:00:00 20.2 20 Nordeste 39 Este 0.2 -- -- 71
2019-11-15 11:00:00 19 17 Nordeste 42 Nordeste 0.2 -- -- 76
2019-11-15 10:00:00 19.5 19 Nordeste 39 Nordeste 0 -- -- 75
2019-11-15 09:00:00 18.8 18 Nordeste 41 Este 0.2 -- -- 76
2019-11-15 08:00:00 19.1 15 Nordeste 40 Nordeste 0 -- -- 74
2019-11-15 07:00:00 18.7 23 Norte 40 Norte 0 -- -- 77
2019-11-15 06:00:00 19.6 15 Nordeste 31 Nordeste 0 -- -- 70
2019-11-15 05:00:00 19.8 15 Nordeste 30 Este 0 -- -- 63
2019-11-15 04:00:00 19.8 16 Nordeste 38 Nordeste 0 -- -- 62
2019-11-15 03:00:00 20 17 Nordeste 41 Nordeste 0 -- -- 62
2019-11-15 02:00:00 19.5 27 Nordeste 45 Norte 0 -- -- 71
2019-11-15 01:00:00 20.6 25 Nordeste 43 Nordeste 0 -- -- 60
2019-11-15 00:00:00 20.5 30 Nordeste 55 Nordeste 0 -- -- 64
2019-11-14 23:00:00 20.4 26 Nordeste 46 Nordeste 0 -- -- 67
2019-11-14 22:00:00 20.6 23 Nordeste 41 Nordeste 0 -- -- 65
2019-11-14 21:00:00 20.6 25 Nordeste 41 Nordeste 0 -- -- 67
2019-11-14 20:00:00 20.7 24 Nordeste 42 Nordeste 0 -- -- 65
2019-11-14 19:00:00 20.7 18 Nordeste 35 Nordeste 0 -- -- 70
2019-11-14 18:00:00 20.7 21 Nordeste 41 Nordeste 0 -- -- 68
2019-11-14 17:00:00 21.3 26 Nordeste 42 Nordeste 0 -- -- 64
2019-11-14 16:00:00 21.7 23 Nordeste 42 Nordeste 0 -- -- 62
2019-11-14 15:00:00 22.2 20 Nordeste 42 Nordeste 0 -- -- 57
2019-11-14 14:00:00 21.7 21 Nordeste 44 Nordeste 0 -- -- 62
2019-11-14 13:00:00 21.8 20 Nordeste 42 Nordeste 0 -- -- 66
2019-11-14 12:00:00 22.1 23 Nordeste 41 Nordeste 0 -- -- 61
2019-11-14 11:00:00 22 24 Nordeste 43 Nordeste 0 -- -- 61
2019-11-14 10:00:00 21.6 18 Este 41 Nordeste 0 -- -- 60
2019-11-14 09:00:00 21.3 16 Este 36 Nordeste 0 -- -- 60
2019-11-14 08:00:00 20.6 12 Nordeste 33 Este 0 -- -- 65
2019-11-14 07:00:00 20.5 17 Este 36 Nordeste 0 -- -- 59
2019-11-14 06:00:00 20.1 15 Nordeste 30 Este 0 -- -- 64
2019-11-14 05:00:00 20.3 17 Nordeste 40 Nordeste 0 -- -- 64
2019-11-14 04:00:00 20.2 19 Nordeste 35 Nordeste 0 -- -- 66
2019-11-14 03:00:00 20.2 17 Nordeste 33 Nordeste 0 -- -- 63
2019-11-14 02:00:00 20.3 19 Nordeste 38 Nordeste 0 -- -- 63
2019-11-14 01:00:00 20.4 24 Nordeste 42 Nordeste 0 -- -- 62
2019-11-14 00:00:00 20.3 15 Este 36 Este 0 -- -- 60
2019-11-13 23:00:00 20.3 17 Nordeste 36 Nordeste 0 -- -- 60
2019-11-13 22:00:00 20.4 23 Nordeste 40 Nordeste 0 -- -- 61
2019-11-13 21:00:00 20.4 17 Nordeste 37 Nordeste 0 -- -- 65
2019-11-13 20:00:00 20.5 17 Nordeste 43 Nordeste 0 -- -- 63
2019-11-13 19:00:00 20.7 25 Nordeste 39 Nordeste 0 -- -- 63
2019-11-13 18:00:00 20.9 21 Nordeste 44 Nordeste 0 -- -- 64
2019-11-13 17:00:00 21.6 23 Nordeste 45 Nordeste 0 -- -- 60
2019-11-13 16:00:00 22.1 27 Nordeste 49 Nordeste 0 -- -- 58
2019-11-13 15:00:00 21.3 27 Nordeste 45 Nordeste 0 -- -- 68
2019-11-13 14:00:00 22.3 26 Nordeste 51 Nordeste 0 -- -- 62
2019-11-13 13:00:00 22.5 28 Nordeste 60 Nordeste 0 -- -- 62
2019-11-13 12:00:00 22.4 33 Nordeste 55 Nordeste 0 -- -- 56
2019-11-13 11:00:00 21.8 31 Nordeste 53 Nordeste 0 -- -- 62
2019-11-13 10:00:00 21.1 24 Nordeste 56 Este 0 -- -- 65
2019-11-13 09:00:00 20.7 23 Nordeste 45 Nordeste 0 -- -- 69
2019-11-13 08:00:00 20.2 21 Nordeste 41 Nordeste 0 -- -- 69
2019-11-13 07:00:00 20.3 26 Nordeste 46 Nordeste 0 -- -- 70
2019-11-13 06:00:00 20 19 Nordeste 44 Nordeste 0 -- -- 73
2019-11-13 05:00:00 20 21 Nordeste 38 Nordeste 0 -- -- 71
2019-11-13 04:00:00 19.9 23 Nordeste 37 Este 0 -- -- 71
2019-11-13 03:00:00 19.8 19 Nordeste 36 Nordeste 0 -- -- 69
2019-11-13 02:00:00 20 19 Nordeste 40 Nordeste 0 -- -- 66
2019-11-13 01:00:00 20 23 Nordeste 46 Nordeste 0 -- -- 68
2019-11-13 00:00:00 19.9 22 Nordeste 48 Este 0 -- -- 71
2019-11-12 23:00:00 20 23 Nordeste 43 Este 0 -- -- 72
2019-11-12 22:00:00 20.1 24 Nordeste 41 Nordeste 0 -- -- 72
2019-11-12 21:00:00 20.2 23 Nordeste 39 Nordeste 0 -- -- 70
2019-11-12 20:00:00 20.3 26 Nordeste 44 Nordeste 0 -- -- 71
2019-11-12 19:00:00 20.7 24 Nordeste 41 Nordeste 0 -- -- 73
2019-11-12 18:00:00 21.3 24 Nordeste 42 Nordeste 0 -- -- 71
2019-11-12 17:00:00 22 26 Nordeste 46 Nordeste 0 -- -- 73
2019-11-12 16:00:00 21 26 Nordeste 48 Nordeste 0 -- -- 79
2019-11-12 15:00:00 20.7 29 Nordeste 45 Nordeste 0.4 -- -- 81
2019-11-12 14:00:00 21.5 24 Nordeste 41 Nordeste 0.2 -- -- 77
2019-11-12 13:00:00 21 23 Nordeste 42 Nordeste 0.4 -- -- 82
2019-11-12 12:00:00 22.1 23 Nordeste 42 Nordeste 0.2 -- -- 70
2019-11-12 11:00:00 21.4 21 Nordeste 47 Nordeste 0 -- -- 74
2019-11-12 10:00:00 19.5 27 Nordeste 48 Nordeste 1 -- -- 81
2019-11-12 09:00:00 20.9 19 Nordeste 39 Nordeste 0.2 -- -- 72
2019-11-12 08:00:00 20.3 19 Nordeste 37 Este 0 -- -- 74
2019-11-12 07:00:00 20.4 16 Nordeste 47 Nordeste 0 -- -- 73
2019-11-12 06:00:00 20.4 24 Nordeste 44 Nordeste 0 -- -- 71
2019-11-12 05:00:00 20.9 21 Nordeste 46 Nordeste 0 -- -- 65
2019-11-12 04:00:00 20.9 24 Nordeste 43 Este 0 -- -- 63
2019-11-12 03:00:00 20.5 22 Nordeste 41 Nordeste 0 -- -- 66
2019-11-12 02:00:00 20.7 23 Nordeste 44 Norte 0 -- -- 65
2019-11-12 01:00:00 20.8 26 Nordeste 49 Nordeste 0 -- -- 66
2019-11-12 00:00:00 20.8 15 Nordeste 48 Nordeste 0 -- -- 67